Malatya, Turkey

10:11 AM +03 on April 25, 2018 (GMT +0300)
Erhac Air Base

Weather History for LTAT - December, 2013

Change the Weather History Date:

Friday, December 13, 2013

  Actual Average Record
Temperature  
Mean Temperature 19 °F -  
Max Temperature 30 °F 40 °F 60 °F (1996)
Min Temperature 8 °F 29 °F 8 °F (2013)
Degree Days  
Heating Degree Days 46    
Moisture  
Dew Point 16 °F    
Average Humidity 82    
Maximum Humidity 100    
Minimum Humidity 55    
Precipitation  
Precipitation 0.00 in 0.06 in - ()
Sea Level Pressure  
Sea Level Pressure 29.96 in    
Wind  
Wind Speed 2 mph ()    
Max Wind Speed 4 mph    
Max Gust Speed -    
Visibility 6.2 miles    
Events Snow    
Averages and records for this station are not official NWS values.
T = Trace of Precipitation, MM = Missing Value Source: Averaged Metar Reports

Daily Weather History Graph

Daily Weather History Graph

Search for Another Location

Airport or City:

Astronomy

Dec. 13, 2013 Rise Set
Actual Time 6:36 AM EET 4:07 PM EET
Civil Twilight 6:06 AM EET 4:37 PM EET
Nautical Twilight 5:33 AM EET 5:10 PM EET
Astronomical Twilight 5:01 AM EET 5:42 PM EET
Moon 1:35 PM EET (12/13) 2:40 AM EET (12/13)
Length of Visible Light 10h 30m
Length of Day
9h 31m
Waxing Gibbous, 86% of the Moon is Illuminated
Dec 13
Waxing Gibbous
Dec 17
Full
Dec 25
Last Quarter
Jan 1
New
Jan 8
First Quarter

Hourly Weather History & Observations

Time (EET) Temp. Windchill Dew Point Humidity Pressure Visibility Wind Dir Wind Speed Gust Speed Precip Events Conditions
12:20 AM 10.4 °F - 6.8 °F 85% 29.92 in - North - - N/A   Scattered Clouds
12:50 AM 10.4 °F - 5.0 °F 79% 29.95 in - North - - N/A   Scattered Clouds
1:20 AM 10.4 °F - 5.0 °F 79% 29.95 in 6.2 mi North - - N/A   Scattered Clouds
1:50 AM 8.6 °F - 3.2 °F 79% 29.95 in - North - - N/A   Scattered Clouds
2:20 AM 10.4 °F - 5.0 °F 79% 29.95 in - North - - N/A   Scattered Clouds
2:50 AM 8.6 °F - 5.0 °F 85% 29.95 in - North - - N/A   Scattered Clouds
3:20 AM 8.6 °F - 5.0 °F 85% 29.95 in - North - - N/A   Scattered Clouds
3:50 AM 8.6 °F - 5.0 °F 85% 29.95 in - North - - N/A   Scattered Clouds
4:20 AM 8.6 °F - 5.0 °F 85% 29.95 in - North - - N/A   Scattered Clouds
4:50 AM 10.4 °F - 5.0 °F 79% 29.95 in - North - - N/A   Scattered Clouds
5:20 AM 8.6 °F 2.0 °F 5.0 °F 85% 29.98 in 6.2 mi SSW 3.5 mph - N/A   Scattered Clouds
5:50 AM 12.2 °F - 8.6 °F 85% 29.98 in - North - - N/A   Mostly Cloudy
6:20 AM 15.8 °F - 12.2 °F 86% 30.01 in - North - - N/A   Mostly Cloudy
6:50 AM 17.6 °F - 12.2 °F 79% 30.01 in - North - - N/A   Mostly Cloudy
7:20 AM 19.4 °F - 15.8 °F 86% 30.01 in - North - - N/A   Mostly Cloudy
7:50 AM 21.2 °F - 15.8 °F 80% 30.01 in - North - - N/A   Mostly Cloudy
8:20 AM 21.2 °F - 15.8 °F 80% 30.01 in - North - - N/A   Overcast
8:50 AM 23.0 °F - 15.8 °F 74% 30.04 in - North - - N/A   Overcast
9:20 AM 26.6 °F - 15.8 °F 64% 30.01 in - North - - N/A   Mostly Cloudy
9:50 AM 26.6 °F - 14.0 °F 59% 30.01 in - North - - N/A   Mostly Cloudy
10:20 AM 28.4 °F - 14.0 °F 55% 30.01 in - North - - N/A   Mostly Cloudy
10:50 AM 28.4 °F - 15.8 °F 59% 29.98 in - North - - N/A   Mostly Cloudy
11:20 AM 30.2 °F - 15.8 °F 55% 29.98 in - North - - N/A   Mostly Cloudy
11:50 AM 30.2 °F - 17.6 °F 60% 29.95 in - North - - N/A   Mostly Cloudy
12:20 PM 28.4 °F - 19.4 °F 69% 29.95 in - North - - N/A   Overcast
12:50 PM 28.4 °F - 19.4 °F 69% 29.95 in - North - - N/A Snow Light Snow
1:20 PM 26.6 °F - 19.4 °F 74% 29.92 in - North - - N/A Snow Light Snow
1:50 PM 26.6 °F - 21.2 °F 80% 29.92 in - North - - N/A Snow Light Snow
2:20 PM 26.6 °F - 21.2 °F 80% 29.92 in - North - - N/A Snow Light Snow
2:50 PM 26.6 °F - 23.0 °F 86% 29.92 in - North - - N/A Snow Light Snow
3:20 PM 26.6 °F - 23.0 °F 86% 29.92 in - North - - N/A Snow Light Snow
3:50 PM 26.6 °F - 23.0 °F 86% 29.92 in - North - - N/A   Overcast
4:20 PM 24.8 °F - 23.0 °F 93% 29.92 in - North - - N/A   Overcast
4:50 PM 24.8 °F - 23.0 °F 93% 29.92 in - North - - N/A   Overcast
5:20 PM 24.8 °F - 23.0 °F 93% 29.92 in - North - - N/A   Overcast
5:50 PM 23.0 °F - 23.0 °F 100% 29.95 in - North - - N/A Snow Light Snow
6:20 PM 23.0 °F - 21.2 °F 93% 29.95 in - North - - N/A Snow Light Snow
6:50 PM 23.0 °F - 23.0 °F 100% 29.95 in - North - - N/A   Mostly Cloudy
7:20 PM 24.8 °F - 23.0 °F 93% 29.95 in - North - - N/A Snow Light Snow
7:50 PM 24.8 °F - 23.0 °F 93% 29.95 in - North - - N/A Snow Light Snow
8:20 PM 24.8 °F - 23.0 °F 93% 29.95 in - North - - N/A Snow Light Snow
8:50 PM 24.8 °F - 23.0 °F 93% 29.98 in - North - - N/A Snow Light Snow
9:20 PM 24.8 °F - 23.0 °F 93% 29.98 in - North - - N/A   Overcast
9:50 PM 24.8 °F - 23.0 °F 93% 29.98 in - North - - N/A   Overcast
10:20 PM 26.6 °F - 23.0 °F 86% 29.98 in - North - - N/A   Overcast
10:50 PM 26.6 °F - 24.8 °F 93% 29.98 in - North - - N/A   Overcast
11:20 PM 26.6 °F - 24.8 °F 93% 29.98 in - North - - N/A   Overcast
11:50 PM 24.8 °F - 24.8 °F 100% 29.98 in - North - - N/A   Overcast